{"data":{"norad_id":48843,"intl_designator":"2021-050D","name":"2021-050D","alt_names":[],"object_type":"PAYLOAD","status":"ACTIVE","operator":null,"country":"PRC","launch_date":"2021-06-11","launch_site_code":"TAISC","launch_vehicle":null,"mission":null,"orbit_class":"UNKNOWN","rcs_meters":null,"size_class":null,"mass_kg":null,"dimensions":null,"purposes":[],"wikipedia_slug":null,"has_3d_model":false,"image_url":null,"decayed_at":null,"tle_current":{"epoch":"2026-09-20T23:03:32.960160Z","epoch_age_seconds":58002,"freshness":"FRESH","line1":"1 48843U 21050D   26263.96079815  .00001474  00000+0  66006-4 0  9996","line2":"2 48843  97.3261 337.8047 0009678 285.2224  74.7943 15.22769384293548","mean_motion":15.22769384,"eccentricity":0.0009678,"inclination_deg":97.3261,"raan_deg":337.8047,"arg_perigee_deg":285.2224,"mean_anomaly_deg":74.7943,"bstar":6.6006e-5,"rev_number":29354,"period_min":94.564548980977,"perigee_km":490.837486072,"apogee_km":504.14595302156,"semimajor_km":6875.6287195468,"source":"CELESTRAK","updated_at":"2026-09-21T09:00:07.898193Z"}}}